Weather History for Yankton, SD

Change the Weather History Date:

Sunday, March 24, 2013

  Actual Average Record
Temperature  
Mean Temperature 22 °F -  
Max Temperature 28 °F 47 °F 80 °F (2004)
Min Temperature 17 °F 24 °F -5 °F (1965)
Degree Days  
Heating Degree Days 42    
Moisture  
Dew Point 18 °F    
Average Humidity 79    
Maximum Humidity 93    
Minimum Humidity 59    
Precipitation  
Precipitation 0.00 in - - ()
Sea Level Pressure  
Sea Level Pressure 30.12 in    
Wind  
Wind Speed 17 mph (NW)    
Max Wind Speed 22 mph    
Max Gust Speed 28 mph    
Visibility 8 miles    
Events      
Averages and records for this station are not official NWS values.
T = Trace of Precipitation, MM = Missing Value Source: NWS Daily Summary

Daily Weather History Graph

Daily Weather History Graph

Search for Another Location

Airport:

Trip Planner

Search our weather history database for the weather conditions in past years. The results will help you decide how hot, cold, wet, or windy it might be!

Date:

Astronomy

Mar. 24, 2013 Rise Set
Actual Time 7:25 AM CDT 7:46 PM CDT
Civil Twilight 6:56 AM CDT 8:15 PM CDT
Nautical Twilight 6:23 AM CDT 8:48 PM CDT
Astronomical Twilight 5:49 AM CDT 9:23 PM CDT
Moon 5:13 PM CDT (3/24) 5:39 AM CDT (3/24)
Length of Visible Light 13h 18m
Length of Day
12h 21m
Waxing Gibbous, 92% of the Moon is Illuminated
Mar 24
Waxing Gibbous
Mar 27
Full
Apr 2
Last Quarter
Apr 10
New
Apr 18
First Quarter

Hourly Weather History & Observations

Time (CDT) Temp. Windchill Dew Point Humidity Pressure Visibility Wind Dir Wind Speed Gust Speed Precip Events Conditions
12:15 AM 24.8 °F 12.9 °F 19.4 °F 80% 30.16 in 10.0 mi NW 13.8 mph - N/A   Overcast
12:35 AM 24.8 °F 12.9 °F 17.6 °F 74% 30.16 in 10.0 mi NW 13.8 mph - N/A   Overcast
12:55 AM 24.8 °F 13.4 °F 19.4 °F 80% 30.16 in 10.0 mi NW 12.7 mph - N/A   Overcast
1:15 AM 24.8 °F 12.4 °F 17.6 °F 74% 30.16 in 10.0 mi NW 15.0 mph - N/A   Overcast
1:35 AM 24.8 °F 11.5 °F 17.6 °F 74% 30.16 in 10.0 mi NW 17.3 mph - N/A   Overcast
1:55 AM 24.8 °F 12.9 °F 19.4 °F 80% 30.16 in 10.0 mi NW 13.8 mph - N/A   Overcast
2:35 AM 24.8 °F 12.4 °F 17.6 °F 74% 30.16 in 10.0 mi NW 15.0 mph 20.7 mph N/A   Overcast
2:55 AM 23.0 °F 8.7 °F 17.6 °F 80% 30.15 in 10.0 mi NW 18.4 mph - N/A   Overcast
3:15 AM 23.0 °F 9.2 °F 17.6 °F 80% 30.15 in 10.0 mi NW 17.3 mph 21.9 mph N/A   Overcast
3:35 AM 23.0 °F 11.1 °F 17.6 °F 80% 30.15 in 10.0 mi NW 12.7 mph - N/A   Overcast
3:55 AM 23.0 °F 9.6 °F 17.6 °F 80% 30.14 in 10.0 mi NW 16.1 mph - N/A   Overcast
4:15 AM 23.0 °F 9.6 °F 17.6 °F 80% 30.14 in 10.0 mi NW 16.1 mph 20.7 mph N/A   Overcast
4:35 AM 21.2 °F 6.8 °F 17.6 °F 86% 30.13 in 10.0 mi NW 17.3 mph 21.9 mph N/A   Overcast
4:55 AM 21.2 °F 6.8 °F 17.6 °F 86% 30.13 in 10.0 mi NW 17.3 mph 20.7 mph N/A   Overcast
5:15 AM 21.2 °F 6.4 °F 17.6 °F 86% 30.13 in 10.0 mi NW 18.4 mph 21.9 mph N/A   Overcast
5:35 AM 21.2 °F 6.8 °F 17.6 °F 86% 30.12 in 10.0 mi NW 17.3 mph 23.0 mph N/A   Overcast
5:55 AM 21.2 °F 6.8 °F 15.8 °F 80% 30.12 in 10.0 mi NW 17.3 mph 23.0 mph N/A   Overcast
6:15 AM 21.2 °F 6.4 °F 15.8 °F 80% 30.12 in 10.0 mi NW 18.4 mph - N/A   Overcast
6:35 AM 19.4 °F 5.0 °F 15.8 °F 86% 30.13 in 10.0 mi NW 16.1 mph - N/A   Overcast
6:55 AM 19.4 °F 5.5 °F 14.0 °F 80% 30.13 in 10.0 mi NW 15.0 mph 21.9 mph N/A   Overcast
7:15 AM 17.6 °F 3.2 °F 14.0 °F 86% 30.13 in 10.0 mi NW 15.0 mph 19.6 mph N/A   Mostly Cloudy
7:35 AM 17.6 °F 3.2 °F 12.2 °F 79% 30.13 in 10.0 mi WNW 15.0 mph - N/A   Scattered Clouds
7:55 AM 17.6 °F 2.7 °F 12.2 °F 79% 30.13 in 10.0 mi WNW 16.1 mph - N/A   Clear
8:15 AM 17.6 °F 1.3 °F 12.2 °F 79% 30.13 in 10.0 mi NW 19.6 mph - N/A   Clear
8:35 AM 17.6 °F 2.7 °F 14.0 °F 86% 30.13 in 10.0 mi NW 16.1 mph 21.9 mph N/A   Clear
8:55 AM 19.4 °F 5.0 °F 14.0 °F 80% 30.12 in 10.0 mi NW 16.1 mph - N/A   Mostly Cloudy
9:15 AM 19.4 °F 5.0 °F 15.8 °F 86% 30.12 in 10.0 mi NW 16.1 mph - N/A   Partly Cloudy
9:35 AM 21.2 °F 6.0 °F 15.8 °F 80% 30.11 in 10.0 mi WNW 19.6 mph 24.2 mph N/A   Clear
9:55 AM 21.2 °F 7.3 °F 15.8 °F 80% 30.11 in 10.0 mi NW 16.1 mph 24.2 mph N/A   Partly Cloudy
10:15 AM 21.2 °F 6.0 °F 15.8 °F 80% 30.10 in 10.0 mi NW 19.6 mph 24.2 mph N/A   Mostly Cloudy
10:35 AM 21.2 °F 6.0 °F 15.8 °F 80% 30.11 in 8.0 mi NW 19.6 mph - N/A   Overcast
10:55 AM 21.2 °F 5.2 °F 15.8 °F 80% 30.11 in 9.0 mi NW 21.9 mph - N/A   Overcast
11:15 AM 21.2 °F 5.6 °F 15.8 °F 80% 30.11 in 9.0 mi NW 20.7 mph 24.2 mph N/A   Mostly Cloudy
11:35 AM 23.0 °F 8.0 °F 15.8 °F 74% 30.10 in 10.0 mi NW 20.7 mph 25.3 mph N/A   Mostly Cloudy
11:55 AM 23.0 °F 8.3 °F 15.8 °F 74% 30.11 in 10.0 mi NW 19.6 mph - N/A   Overcast
12:15 PM 24.8 °F 11.1 °F 15.8 °F 69% 30.11 in 9.0 mi NW 18.4 mph 25.3 mph N/A   Overcast
12:35 PM 24.8 °F 11.1 °F 14.0 °F 64% 30.11 in 10.0 mi WNW 18.4 mph 24.2 mph N/A   Mostly Cloudy
12:55 PM 24.8 °F 11.5 °F 15.8 °F 69% 30.10 in 9.0 mi NW 17.3 mph 23.0 mph N/A   Mostly Cloudy
1:15 PM 24.8 °F 11.5 °F 15.8 °F 69% 30.10 in 7.0 mi NW 17.3 mph 25.3 mph N/A   Scattered Clouds
1:35 PM 24.8 °F 11.9 °F 15.8 °F 69% 30.10 in 6.0 mi NW 16.1 mph 26.5 mph N/A   Scattered Clouds
2:15 PM 26.6 °F 13.1 °F 15.8 °F 64% 30.09 in 9.0 mi NNW 19.6 mph 26.5 mph N/A   Scattered Clouds
2:35 PM 26.6 °F 13.1 °F 15.8 °F 64% 30.08 in 9.0 mi NW 19.6 mph 27.6 mph N/A   Partly Cloudy
2:55 PM 28.4 °F 16.2 °F 15.8 °F 59% 30.08 in 10.0 mi NW 17.3 mph - N/A   Scattered Clouds
3:15 PM 26.6 °F 13.1 °F 17.6 °F 69% 30.07 in 9.0 mi NW 19.6 mph - N/A   Scattered Clouds
3:35 PM 26.6 °F 12.7 °F 17.6 °F 69% 30.07 in 10.0 mi NW 20.7 mph 26.5 mph N/A   Scattered Clouds
3:55 PM 26.6 °F 13.1 °F 17.6 °F 69% 30.06 in 10.0 mi NW 19.6 mph 24.2 mph N/A   Mostly Cloudy
4:15 PM 26.6 °F 13.8 °F 17.6 °F 69% 30.07 in 10.0 mi NW 17.3 mph 24.2 mph N/A   Overcast
4:35 PM 26.6 °F 13.1 °F 17.6 °F 69% 30.07 in 10.0 mi NW 19.6 mph 23.0 mph N/A   Overcast
4:55 PM 26.6 °F 13.1 °F 17.6 °F 69% 30.07 in 10.0 mi NW 19.6 mph 25.3 mph N/A   Overcast
5:15 PM 26.6 °F 13.4 °F 17.6 °F 69% 30.07 in 10.0 mi WNW 18.4 mph - N/A   Overcast
5:35 PM 26.6 °F 13.4 °F 17.6 °F 69% 30.07 in 10.0 mi NW 18.4 mph 25.3 mph N/A   Overcast
5:55 PM 26.6 °F 13.4 °F 19.4 °F 74% 30.08 in 10.0 mi NW 18.4 mph 23.0 mph N/A   Overcast
6:15 PM 26.6 °F 14.3 °F 19.4 °F 74% 30.08 in 10.0 mi NW 16.1 mph 24.2 mph N/A   Overcast
6:35 PM 26.6 °F 13.1 °F 21.2 °F 80% 30.09 in 5.0 mi NW 19.6 mph - N/A   Overcast
6:55 PM 26.6 °F 13.4 °F 21.2 °F 80% 30.09 in 5.0 mi NW 18.4 mph 24.2 mph N/A   Overcast
7:15 PM 26.6 °F 13.8 °F 21.2 °F 80% 30.09 in 3.0 mi NW 17.3 mph - N/A   Overcast
7:35 PM 26.6 °F 13.1 °F 21.2 °F 80% 30.09 in 2.5 mi NW 19.6 mph 24.2 mph N/A   Overcast
7:55 PM 24.8 °F 11.9 °F 23.0 °F 93% 30.10 in 1.8 mi NW 16.1 mph - N/A   Overcast
8:15 PM 24.8 °F 11.5 °F 23.0 °F 93% 30.10 in 4.0 mi NW 17.3 mph 21.9 mph N/A   Mostly Cloudy
8:35 PM 24.8 °F 11.9 °F 21.2 °F 86% 30.11 in 7.0 mi NW 16.1 mph 23.0 mph N/A   Partly Cloudy
8:55 PM 24.8 °F 12.4 °F 23.0 °F 93% 30.11 in 5.0 mi NW 15.0 mph - N/A   Mostly Cloudy
9:15 PM 26.6 °F 14.3 °F 23.0 °F 86% 30.11 in 4.0 mi NW 16.1 mph 24.2 mph N/A   Overcast
9:35 PM 26.6 °F 13.8 °F 23.0 °F 86% 30.12 in 4.0 mi NW 17.3 mph 23.0 mph N/A   Overcast
9:55 PM 26.6 °F 12.7 °F 21.2 °F 80% 30.12 in 5.0 mi NW 20.7 mph - N/A   Mostly Cloudy
10:15 PM 26.6 °F 13.4 °F 23.0 °F 86% 30.13 in 5.0 mi NNW 18.4 mph - N/A   Overcast
10:35 PM 26.6 °F 13.4 °F 23.0 °F 86% 30.14 in 7.0 mi North 18.4 mph - N/A   Mostly Cloudy
10:55 PM 26.6 °F 13.1 °F 23.0 °F 86% 30.15 in 4.0 mi NNW 19.6 mph 24.2 mph N/A   Mostly Cloudy
11:15 PM 24.8 °F 12.4 °F 23.0 °F 93% 30.15 in 3.0 mi NNW 15.0 mph 21.9 mph N/A   Mostly Cloudy
11:35 PM 24.8 °F 10.7 °F 21.2 °F 86% 30.16 in 5.0 mi North 19.6 mph 23.0 mph N/A   Overcast
11:55 PM 24.8 °F 10.7 °F 21.2 °F 86% 30.16 in 10.0 mi NNW 19.6 mph 25.3 mph N/A   Overcast